Location: Cannon
(33.4387°N, 96.4839°W)
Time: 12:41:49
(UTC+00:00)

ACS3 Solar Sail - Visible Passes

Search period start: 08 November 2024 00:00
Search period end: 18 November 2024 00:00
Orbit: 962 x 1019 km, 97.5° (Epoch: 08 November)

Date Brightness Start Highest point End Pass type
(mag) Time Alt. Az. Time Alt. Az. Time Alt. Az.
08 Nov 3.4 00:52:22 16° NE 00:52:22 16° NE 00:54:20 10° NNE visible
08 Nov 3.7 02:37:21 21° NNW 02:37:21 21° NNW 02:39:21 10° NNW visible
09 Nov 3.2 01:22:03 22° NNE 01:22:03 22° NNE 01:24:31 10° N visible
09 Nov 4.3 03:07:02 14° NW 03:07:02 14° NW 03:08:01 10° NW visible
10 Nov 3.2 01:51:39 25° N 01:51:39 25° N 01:54:07 10° N visible
11 Nov 3.6 00:36:11 13° NE 00:36:11 13° NE 00:37:18 10° NNE visible
11 Nov 3.6 02:21:09 22° NNW 02:21:09 22° NNW 02:23:13 10° NNW visible
12 Nov 3.3 01:05:34 19° NNE 01:05:34 19° NNE 01:07:39 10° NNE visible
12 Nov 4.1 02:50:32 16° NW 02:50:32 16° NW 02:51:49 10° NNW visible
13 Nov 3.3 01:34:52 23° N 01:34:52 23° N 01:37:08 10° N visible
14 Nov 3.4 02:04:03 23° N 02:04:03 23° N 02:06:08 10° N visible
15 Nov 3.5 00:48:11 15° NE 00:48:11 15° NE 00:49:44 10° NNE visible
15 Nov 3.9 02:33:07 18° NNW 02:33:07 18° NNW 02:34:40 10° NNW visible
16 Nov 3.3 01:17:10 20° NNE 01:17:10 20° NNE 01:19:13 10° N visible
16 Nov 4.3 03:02:05 12° NW 03:02:05 12° NW 03:02:39 10° NW visible
17 Nov 3.4 01:46:02 22° N 01:46:02 22° N 01:48:07 10° N visible
